Regional Weather Roundup
Issued by NWS

Current Version | Previous Version | Text Only | Print | Product List | Glossary On
Versions: 1 2 3 4 5 6 7 8 9 10 11 12 13 14 15 16 17 18 19 20 21 22 23 24 25 26 27 28 29 30 31 32 33 34 35 36 37 38 39 40 41 42 43 44 45 46 47 48 49 50
000
ASUS42 KTBW 250616
RWRFL
FLORIDA REGIONAL WEATHER ROUNDUP
NATIONAL WEATHER SERVICE TAMPA BAY RUSKIN FL
200 AM EDT MON JUL 25 2016

NOTE: "FAIR" INDICATES FEW OR NO CLOUDS BELOW 12,000 FEET WITH NO
SIGNIFICANT WEATHER AND/OR OBSTRUCTIONS TO VISIBILITY.

FLZ001>010-012>015-112-114-115-250700-
PANHANDLE FLORIDA

CITY           SKY/WX    TMP DP  RH WIND       PRES   REMARKS
PENSACOLA      PTCLDY    83  74  74 SE10      29.97F
PENSACOLA NAS  CLEAR     84  73  69 SE9       29.97F
MILTON NAS       N/A    N/A N/A N/A MISG      29.99F
CRESTVIEW      CLEAR     74  73  97 CALM      30.02F
DUKE FIELD     FAIR      76  73  92 E5        29.99F
VALPARAISO     PTCLDY    83  74  75 CALM      29.98F
MARY ESTHER    PTCLDY    84  72  68 SE6       29.97
TRI COUNTY     FAIR      82  74  76 CALM      30.02F
PANAMA CITY    FAIR      77  75  93 NE7       29.99F
TYNDALL AFB    PTCLDY    79  76  89 E3        30.00F
APALACHICOLA   PTCLDY    83  77  82 S8        30.00F

STATION/POSITION SKY/WX   TEMP    WIND        PRES    WAVE   SWELL
                          AIR SEA DIR/SP/G            HT/PER HT/PER
                          (F)     (DEG/KT/KT) (MB)    (FT/S) (FT/S)
30.1N   87.6W              85 89  130/ 12/ 14 1014.7F   1/ 4
29.2N   88.2W              84 88  160/  6/  8 1013.6F
28.8N   86.0W              83 88  170/  8/ 12 1015.3F   2/ 4   2/ 4
PANAMA CITY BEAC           85 87  170/ 11/ 13 1016.5F
TOWER C                    83     170/  8/  9 1016.5F
28.5N   84.5W              83 87  170/  8/ 10 1016.3F   2/ 5   2/ 5

$$
FLZ011-016>038-118-127-128-134-139-239-250700-
NORTH FLORIDA

CITY           SKY/WX    TMP DP  RH WIND       PRES   REMARKS
MARIANNA       PTCLDY    78  76  93 SE3       30.01F
TALLAHASSEE    CLOUDY    79  76  90 CALM        N/A
PERRY          CLEAR     75  70  85 CALM      30.05S
LIVE OAK         N/A     73  73 100 CALM      30.07S
CROSS CITY       N/A     74  71  91 CALM      30.04F
LAKE CITY      FAIR      72  72 100 CALM      30.06S
GAINESVILLE    CLEAR     72  68  87 W3        30.06F
WILLISTON      FAIR      73  72  94 CALM      30.06F
PALATKA        FAIR      73  73 100 CALM      30.07S
MAYPORT NAS    CLEAR     79  71  76 S7        30.06F
JACKSONVILLE   CLEAR     77  72  84 S5        30.05F
JAX NAS        CLEAR     83  70  64 S6        30.06F
JAX CECIL      CLEAR     73  72  94 CALM      30.06S
FERNANDINA BEA FAIR      84  73  70 S9        30.04F
ST AUGUSTINE   CLEAR     78  71  79 SW5       30.07F
PALM COAST     FAIR      74  73  95 CALM      30.07R

STATION/POSITION SKY/WX   TEMP    WIND        PRES    WAVE   SWELL
                          AIR SEA DIR/SP/G            HT/PER HT/PER
                          (F)     (DEG/KT/KT) (MB)    (FT/S) (FT/S)
SHELL POINT                85     170/  9/ 12 1015.9
KEATON BEACH               77      70/  7/  8 1016.7F
CEDAR KEY                  81     140/  8/  9 1017.6F
FERNANDINA                 82 88  150/  5/  8 1017.9F
30.7N   81.3W                 86                N/A     3/ 4
MAYPORT                    81 86  200/  5/  7 1018.4F
31.4N   80.9W              85 86  170/ 16/ 17 1017.5F   3/ 4   2/ 9
ST AUGUSTINE               78 86  220/  3/  4 1018.9F

$$
FLZ040-043>046-052-053-057-058-063-144-250700-
INTERIOR CENTRAL FLORIDA

CITY           SKY/WX    TMP DP  RH WIND       PRES   REMARKS
OCALA          CLEAR     72  66  83 CALM      30.07S
THE VILLAGES     N/A     73  72  94 CALM      29.97S
LEESBURG       CLEAR     76  71  85 SE7       30.08S
SANFORD        CLEAR     77  71  82 S3        30.07F
ORLANDO EXEC   CLEAR     76  71  85 SE3       30.07F
ORLANDO INTL   PTCLDY    76  70  82 S3        30.07F
KISSIMMEE      CLEAR     76  72  87 CALM      30.08S
WINTER HAVEN   CLEAR     75  71  87 SW5       30.08S
LAKELAND       CLEAR     72  70  94 CALM      30.08S
BARTOW         FAIR      72 N/A N/A CALM      30.08F
OKEECHOBEE     CLEAR     72  72 100 CALM      30.07S

$$
FLZ041-047-054-059-064-141-147-250700-
EAST CENTRAL FLORIDA

CITY           SKY/WX    TMP DP  RH WIND       PRES   REMARKS
DAYTONA BEACH  CLEAR     75  72  90 SW3       30.07F
JFK SPACE CTR  CLEAR     73  71  91 CALM      30.06S
CAPE CANAVERAL CLEAR     76  71  87 CALM      30.06S
PATRICK AFB    CLEAR     80  73  79 S1        30.06S
MELBOURNE      CLEAR     76  71  85 CALM      30.07S
VERO BEACH     CLEAR     74  71  91 CALM      30.07S
FT PIERCE      CLEAR     73  71  93 CALM      30.06F
STUART         CLEAR     79  73  83 CALM      30.08S

STATION/POSITION SKY/WX   TEMP    WIND        PRES    WAVE   SWELL
                          AIR SEA DIR/SP/G            HT/PER HT/PER
                          (F)     (DEG/KT/KT) (MB)    (FT/S) (FT/S)
28.5N   80.2W              82 85  170/  6/  8 1018.5S
28.9N   78.5W              84 86  170/  4/  6 1018.4F
TRIDENT PIER               81 88  230/  3/  4 1018.3F
28.4N   80.5W                 87                N/A     2/ 9
27.5N   80.2W                 85                N/A     1/ 8

$$
FLZ050-056-061-142-242-148-248-149-249-151-251-155-255-
160-260-250700-
WEST CENTRAL FLORIDA

CITY           SKY/WX    TMP DP  RH WIND       PRES   REMARKS
CRYSTAL RIVER  FAIR      72  70  94 E3        30.06S
INVERNESS      FAIR      72  72 100 CALM      30.07F
BROOKSVILLE    CLEAR     72  71  97 E3        30.07F
ZEPHYRHILLS    FAIR      50  50 100 SE5       30.07F
CLEARWATER AIR MOCLDY    77  75  94 CALM      30.05S
ST PETE CLEARW PTCLDY    78  66  66 SE6       30.05F
TAMPA INTL     PTCLDY    75  73  93 VRB3      30.06F
TAMPA EXEC     CLEAR     73  70  88 CALM      30.07F
PLANT CITY     CLEAR     73  73 100 SE3       30.09S
MACDILL AFB    CLEAR     77  77 100 SE6       30.05F
PETER O KNIGHT CLEAR     77  73  88 E3        30.06F
ST PETERSBURG  CLEAR     79  75  87 S12       30.03F
SARASOTA       CLEAR     78  72  81 E6        30.04F
VENICE         NOT AVBL

STATION/POSITION SKY/WX   TEMP    WIND        PRES    WAVE   SWELL
                          AIR SEA DIR/SP/G            HT/PER HT/PER
                          (F)     (DEG/KT/KT) (MB)    (FT/S) (FT/S)
27.3N   84.2W                 85                N/A     2/ 5
CLEARWATER BEACH           80 87  100/  5/  8 1017.8F
MIDDLE TAMPA BAY                  150/  8/ 10 1018.1F
VENICE                     83 87  210/  7/  8 1017.4F

$$
FLZ066-069-070-075>078-162-262-165-265-250700-
SOUTHWEST FLORIDA AND KEYS

CITY           SKY/WX    TMP DP  RH WIND       PRES   REMARKS
PUNTA GORDA    CLEAR     76  75  97 SE3       30.07F
FT MYERS       CLEAR     76  74  93 SE3       30.05F
SOUTHWEST INTL CLEAR     76  72  87 CALM      30.06F
NAPLES         PTCLDY    76  73  91 E3        30.05F
MARCO ISLAND   MOCLDY    75  70  83 NE5       30.05F
MARATHON       PTCLDY    82  75  79 E6        30.03F
KEY WEST NAS   CLOUDY   N/A N/A N/A SE6       30.03F
KEY WEST INTL  PTCLDY    83  77  82 SE5       30.03F

STATION/POSITION SKY/WX   TEMP    WIND        PRES    WAVE   SWELL
                          AIR SEA DIR/SP/G            HT/PER HT/PER
                          (F)     (DEG/KT/KT) (MB)    (FT/S) (FT/S)
NAPLES                        86              1018.0S
26.0N   85.6W              81 86  180/ 10/ 16 1016.8F   2/ 4   2/ 7
DRY TORTUGAS               83     120/  6/  7 1017.1F
SAND KEY                   82     110/  3/  4 1017.3F
LONG KEY                   83 86  110/  7/  9 1017.3F

$$
FLZ067-068-071>074-168-172>174-250700-
SOUTHEAST FLORIDA

CITY           SKY/WX    TMP DP  RH WIND       PRES   REMARKS
W PALM BEACH   PTCLDY    78  72  81 NW3       30.07F
FT LAUDER-EXEC PTCLDY    81  72  74 CALM      30.05F
FT LAUDERDALE  CLOUDY    82  74  76 S3        30.05F
POMPANO BEACH  CLOUDY    82  74  76 SE5       30.05F
PEMBROKE PINES CLOUDY    81  74  79 NE3       30.06F
OPA LOCKA      CLOUDY    81  74  79 NE3       30.05F
MIAMI          MOCLDY    81  74  79 E5        30.05F
WEST KENDALL   PTCLDY    77  75  93 E3        30.05F
HOMESTEAD      CLOUDY    79  75  89 NE1       30.05F

STATION/POSITION SKY/WX   TEMP    WIND        PRES    WAVE   SWELL
                          AIR SEA DIR/SP/G            HT/PER HT/PER
                          (F)     (DEG/KT/KT) (MB)    (FT/S) (FT/S)
PORT EVERGLADES            82     140/  3/  6 1017.6F
VIRGINIA KEY               83 87  120/  4/  5 1018.5F
LAKE WORTH                        180/  5/  7   N/A
FOWEY ROCKS                83 84  130/  9/ 10 1018.1F
SETTLEMENT POINT           80     130/  4/  5 1018.5F

$$




USA.gov is the U.S. government's official web portal to all federal, state and local government web resources and services.